TimeHST,TemperatureF,Dew PointF,Humidity,Sea Level PressureIn,VisibilityMPH,Wind Direction,Wind SpeedMPH,Gust SpeedMPH,PrecipitationIn,Events,Conditions,WindDirDegrees,DateUTC
12:54 AM,66.0,64.0,93,30.00,10.0,Calm,Calm,-,N/A,,Clear,0,2013-12-04 10:54:00
1:54 AM,66.9,64.9,93,29.99,10.0,Calm,Calm,-,N/A,,Clear,0,2013-12-04 11:54:00
2:54 AM,68.0,64.0,87,29.97,10.0,Calm,Calm,-,N/A,,Clear,0,2013-12-04 12:54:00
3:54 AM,66.0,63.0,90,29.96,10.0,Calm,Calm,-,N/A,,Clear,0,2013-12-04 13:54:00
4:54 AM,63.0,60.1,90,29.96,10.0,NE,3.5,-,N/A,,Clear,40,2013-12-04 14:54:00
5:54 AM,64.0,60.1,87,29.97,10.0,North,3.5,-,N/A,,Clear,10,2013-12-04 15:54:00
6:54 AM,60.1,59.0,96,30.00,10.0,Calm,Calm,-,N/A,,Clear,0,2013-12-04 16:54:00
7:54 AM,72.0,66.0,81,30.01,10.0,NNW,5.8,-,N/A,,Clear,330,2013-12-04 17:54:00
8:54 AM,78.1,64.0,62,30.02,10.0,NNE,6.9,-,N/A,,Clear,20,2013-12-04 18:54:00
9:54 AM,79.0,62.1,56,30.02,10.0,NNE,13.8,18.4,N/A,,Scattered Clouds,30,2013-12-04 19:54:00
10:54 AM,80.1,66.0,62,30.01,10.0,NNE,8.1,-,N/A,,Clear,30,2013-12-04 20:54:00
11:54 AM,82.0,66.0,58,29.97,10.0,NNE,10.4,-,N/A,,Mostly Cloudy,30,2013-12-04 21:54:00
12:54 PM,81.0,66.0,60,29.94,10.0,NNE,12.7,19.6,N/A,,Scattered Clouds,30,2013-12-04 22:54:00
1:54 PM,81.0,64.9,58,29.90,10.0,NE,6.9,-,N/A,,Partly Cloudy,40,2013-12-04 23:54:00
2:54 PM,79.0,64.9,62,29.90,10.0,Variable,6.9,-,N/A,,Clear,0,2013-12-05 00:54:00
3:54 PM,80.1,66.0,62,29.92,10.0,North,11.5,18.4,N/A,,Clear,350,2013-12-05 01:54:00
4:54 PM,77.0,66.0,69,29.95,10.0,NNE,10.4,16.1,N/A,,Clear,30,2013-12-05 02:54:00
5:54 PM,73.9,66.0,76,29.98,10.0,NE,10.4,16.1,N/A,,Clear,40,2013-12-05 03:54:00
6:02 PM,73.4,66.2,78,29.97,10.0,NE,10.4,-,N/A,,Partly Cloudy,40,2013-12-05 04:02:00
6:54 PM,73.9,66.0,76,29.99,10.0,NNE,10.4,-,N/A,,Clear,30,2013-12-05 04:54:00
7:54 PM,73.0,64.9,76,30.00,10.0,NE,10.4,16.1,N/A,,Clear,50,2013-12-05 05:54:00
8:54 PM,72.0,64.0,76,30.01,10.0,NNE,5.8,-,N/A,,Clear,30,2013-12-05 06:54:00
9:54 PM,69.1,61.0,75,30.01,10.0,NE,6.9,-,N/A,,Clear,50,2013-12-05 07:54:00
10:54 PM,68.0,61.0,78,30.01,10.0,NE,3.5,-,N/A,,Clear,50,2013-12-05 08:54:00
11:54 PM,66.0,61.0,84,30.01,10.0,Calm,Calm,-,N/A,,Clear,0,2013-12-05 09:54:00